EW0199 Weather Reports


Display with metric or nautical units.
time (UTC)temp
F
wind
direction
speed
MPH
gust
MPH
rain 1hr
in
rain 24hr
in
rain mn
in
humidity
%
barometer
mb
20260905020348 66 298 0.0 1.0 0.00 0.48 0.38 98 1014.4
20260905015841 66 124 0.0 2.0 0.00 0.48 0.38 98 1014.2
20260905015403 66 97 0.0 5.0 0.00 0.48 0.38 98 1014.3
20260905014847 66 321 2.0 5.0 0.00 0.48 0.38 98 1014.5
20260905014331 66 20 0.0 4.0 0.00 0.48 0.38 98 1014.5
20260905013912 66 315 1.0 4.0 0.00 0.48 0.38 97 1014.4
20260905013356 66 314 1.0 3.0 0.00 0.48 0.38 97 1014.3
20260905012840 66 326 0.0 2.0 0.00 0.48 0.38 97 1014.3
20260905012404 66 42 0.0 3.0 0.00 0.48 0.38 97 1014.5
20260905011832 66 305 0.0 3.0 0.00 0.48 0.38 97 1014.4
20260905011355 66 319 0.0 4.0 0.00 0.48 0.38 97 1014.2
20260905010837 66 21 1.0 4.0 0.00 0.48 0.38 97 1014.2
20260905010401 66 319 0.0 2.0 0.00 0.48 0.38 97 1014.1
20260905005905 66 328 0.0 1.0 0.00 0.48 0.38 97 1014.1
20260905005350 66 305 0.0 2.0 0.00 0.48 0.38 97 1014.2
20260905004829 66 241 0.0 2.0 0.00 0.48 0.38 97 1014.1
20260905004412 66 272 0.0 3.0 0.00 0.48 0.38 97 1014.1
20260905003854 67 305 0.0 8.0 0.00 0.48 0.38 97 1014.1
20260905003340 67 13 2.0 8.0 0.00 0.48 0.38 97 1014.1
20260905002922 67 324 1.0 3.0 0.00 0.48 0.38 97 1013.9
20260905002326 67 286 0.0 2.0 0.00 0.48 0.38 97 1013.9
20260905001906 67 311 1.0 3.0 0.00 0.48 0.38 97 1013.9
20260905001350 67 314 0.0 4.0 0.00 0.48 0.38 97 1013.9
20260905000914 67 350 0.0 2.0 0.00 0.48 0.38 97 1014.0
20260905000340 67 289 0.0 4.0 0.00 0.48 0.38 97 1014.0
20260904235902 67 320 0.0 3.0 0.00 0.48 0.38 97 1014.1
20260904235347 67 282 0.0 7.0 0.00 0.48 0.38 97 1013.9
20260904234829 68 357 2.0 5.0 0.00 0.48 0.38 97 1013.7
20260904234415 68 275 1.0 5.0 0.00 0.48 0.38 97 1013.5
20260904233859 68 308 0.0 2.0 0.00 0.48 0.38 97 1013.5
20260904233341 68 84 0.0 2.0 0.00 0.48 0.38 97 1013.5
20260904232906 68 159 0.0 5.0 0.00 0.48 0.38 97 1013.4
20260904232333 68 253 1.0 5.0 0.00 0.48 0.38 97 1013.5
20260904231912 68 320 0.0 2.0 0.00 0.48 0.38 97 1013.5
20260904231356 69 324 0.0 2.0 0.00 0.48 0.38 97 1013.4
20260904230823 69 312 0.0 2.0 0.00 0.48 0.38 97 1013.1
20260904230343 69 324 0.0 2.0 0.00 0.48 0.38 97 1013.1
20260904225907 69 316 0.0 2.0 0.00 0.48 0.38 97 1013.1
20260904225410 69 308 0.0 2.0 0.00 0.48 0.38 97 1013.3
20260904224913 69 309 0.0 2.0 0.00 0.48 0.38 97 1013.2
20260904224355 69 305 0.0 1.0 0.00 0.48 0.38 97 1013.1
20260904223838 69 304 0.0 2.0 0.00 0.48 0.38 97 1013.0
20260904223402 69 304 0.0 2.0 0.00 0.48 0.38 97 1013.1
20260904222845 69 283 0.0 2.0 0.00 0.48 0.38 97 1012.9
20260904222330 69 327 0.0 4.0 0.00 0.48 0.38 97 1013.0
20260904221914 70 350 0.0 4.0 0.01 0.48 0.38 97 1012.9
20260904221358 70 286 0.0 1.0 0.01 0.48 0.38 97 1012.9
20260904220826 70 310 0.0 2.0 0.01 0.48 0.38 97 1012.9
20260904220407 70 311 0.0 2.0 0.01 0.48 0.38 97 1012.8
20260904215835 70 316 0.0 2.0 0.01 0.48 0.38 97 1012.7
20260904215358 70 315 0.0 2.0 0.01 0.48 0.38 97 1012.5
20260904214843 71 206 0.0 1.0 0.01 0.48 0.38 97 1012.4
20260904214327 71 292 0.0 1.0 0.01 0.48 0.38 97 1012.2
20260904213914 71 331 0.0 1.0 0.01 0.48 0.38 97 1012.2
20260904213358 71 314 0.0 4.0 0.01 0.48 0.38 97 1012.2
20260904212824 71 136 0.0 4.0 0.01 0.48 0.38 97 1012.1
20260904212407 71 298 0.0 4.0 0.01 0.48 0.38 97 1012.0
20260904211832 71 118 0.0 1.0 0.00 0.47 0.37 97 1012.0
20260904211411 72 272 0.0 1.0 0.00 0.47 0.37 97 1012.0
20260904210836 71 80 0.0 2.0 0.00 0.47 0.37 97 1012.1
20260904210414 71 283 0.0 2.0 0.00 0.47 0.37 97 1012.1
20260904205842 71 79 0.0 3.0 0.00 0.47 0.37 97 1012.1
20260904205406 71 302 0.0 3.0 0.00 0.47 0.37 97 1012.1
20260904204851 71 310 1.0 2.0 0.00 0.47 0.37 97 1012.1
20260904204336 72 290 0.0 1.0 0.00 0.47 0.37 97 1012.1
20260904203901 71 290 0.0 1.0 0.00 0.47 0.37 97 1012.2
20260904203342 72 314 0.0 0.0 0.00 0.47 0.37 97 1012.3
20260904202333 71 272 0.0 1.0 0.00 0.47 0.37 96 1012.4
20260904201841 71 304 0.0 1.0 0.00 0.47 0.37 96 1012.4
20260904201338 71 304 0.0 1.0 0.00 0.47 0.37 96 1012.5
20260904200333 71 305 0.0 1.0 0.00 0.47 0.37 96 1012.6
20260904195842 71 305 0.0 0.0 0.00 0.47 0.37 97 1012.6
20260904195354 71 305 0.0 1.0 0.00 0.47 0.37 96 1012.7
20260904135912 66 223 0.0 1.0 0.00 1.12 0.37 98 1012.6
20260904135335 66 223 0.0 1.0 0.00 1.12 0.37 98 1012.8
20260904134901 66 223 0.0 0.0 0.00 1.12 0.37 99 1012.9
20260904134424 66 223 0.0 0.0 0.00 1.12 0.37 99 1013.0
20260904133932 66 223 0.0 0.0 0.00 1.12 0.37 99 1013.0
20260904133421 66 223 0.0 0.0 0.00 1.12 0.37 99 1013.0
20260904132835 66 223 0.0 0.0 0.00 1.12 0.37 98 1013.0
20260904132400 66 223 0.0 0.0 0.00 1.12 0.37 98 1013.0
20260904131922 65 223 0.0 0.0 0.00 1.12 0.37 98 1012.9
20260904131429 65 223 0.0 0.0 0.00 1.12 0.37 98 1012.9
20260904130852 65 223 0.0 0.0 0.00 1.12 0.37 98 1012.9
20260904130359 65 223 0.0 0.0 0.00 1.12 0.37 98 1013.0
20260904125922 65 223 0.0 0.0 0.00 1.12 0.37 98 1013.0
20260904125336 65 223 0.0 0.0 0.00 1.12 0.37 98 1013.1
20260904124845 65 223 0.0 0.0 0.00 1.12 0.37 98 1013.0
20260904124349 65 224 0.0 0.0 0.00 1.12 0.37 98 1012.9
20260904123913 65 223 0.0 0.0 0.00 1.12 0.37 98 1012.7
20260904123359 65 223 0.0 0.0 0.00 1.12 0.37 98 1012.4
20260904122924 65 223 0.0 0.0 0.00 1.12 0.37 98 1012.4
20260904122330 65 223 0.0 0.0 0.00 1.12 0.37 98 1012.3
20260904121852 65 223 0.0 0.0 0.00 1.12 0.37 98 1012.1
20260904121350 65 224 0.0 0.0 0.00 1.12 0.37 98 1012.1
20260904120920 65 223 0.0 1.0 0.00 1.12 0.37 98 1012.3
20260904120330 65 223 0.0 0.0 0.00 1.12 0.37 98 1012.4
20260904115850 65 223 0.0 0.0 0.00 1.12 0.37 98 1012.4
20260904115354 65 224 0.0 1.0 0.00 1.12 0.37 98 1012.3
20260904114915 65 223 0.0 1.0 0.00 1.12 0.37 98 1012.2
20260904114335 65 223 0.0 1.0 0.00 1.12 0.37 98 1012.2
20260904113843 65 223 0.0 1.0 0.00 1.12 0.37 98 1012.1
20260904113352 65 230 0.0 1.0 0.00 1.12 0.37 98 1011.9
20260904112859 65 231 0.0 1.0 0.00 1.12 0.37 98 1012.1
20260904112324 65 292 0.0 1.0 0.00 1.12 0.37 98 1011.9
20260904111848 65 292 0.0 1.0 0.00 1.12 0.37 98 1012.0
20260904111354 65 321 0.0 1.0 0.01 1.12 0.37 98 1012.3
20260904110841 65 321 0.0 1.0 0.01 1.12 0.37 98 1012.1
20260904110405 65 321 0.0 1.0 0.01 1.12 0.37 98 1011.9
20260904105831 65 321 0.0 1.0 0.01 1.12 0.37 98 1011.8
20260904105341 65 321 0.0 1.0 0.01 1.12 0.37 98 1011.6